When you browse on this site, cookies collect data to enhance your experience and personalize the content and advertising you see.
Visit our Privacy Policy to learn more. By continuing to use the site, you agree to this use of cookies and data.
  • en Suisse
  • Liste des pays
  • À 7 jours
  • Température de l'eau
  • Carte météo
  • Widgets météo
  • user-avatar
    Se connecter

    Météo par heure à Kozub

    Ce jour, 18 Octobre, Vendredi

    Heure Température Précipitation Vent Pression Humidité
    00:00 +11°C° 0 mm 3 m/s 747 mmHg 78%
    01:00 +12°C° 0 mm 2 m/s 747 mmHg 82%
    02:00 +12°C° 0 mm 2 m/s 746 mmHg 82%
    03:00 +12°C° 0 mm 2 m/s 746 mmHg 82%
    04:00 +10°C° 0 mm 2 m/s 746 mmHg 83%
    05:00 +11°C° 0 mm 3 m/s 746 mmHg 81%
    06:00 +11°C° 0 mm 3 m/s 746 mmHg 80%
    07:00 +11°C° 0 mm 3 m/s 746 mmHg 80%
    08:00 +13°C° 0 mm 3 m/s 746 mmHg 75%
    09:00 +14°C° 0 mm 4 m/s 746 mmHg 71%
    10:00 +17°C° 0 mm 4 m/s 746 mmHg 67%
    11:00 +18°C° 0 mm 4 m/s 745 mmHg 64%
    12:00 +19°C° 0 mm 4 m/s 745 mmHg 61%
    13:00 +19°C° 0 mm 4 m/s 745 mmHg 58%
    14:00 +19°C° 0 mm 4 m/s 744 mmHg 61%
    15:00 +18°C° 0 mm 3 m/s 744 mmHg 63%
    16:00 +18°C° 0 mm 3 m/s 744 mmHg 66%
    17:00 +17°C° 0 mm 3 m/s 744 mmHg 70%
    18:00 +16°C° 0 mm 3 m/s 744 mmHg 74%
    19:00 +14°C° 0 mm 3 m/s 744 mmHg 78%
    20:00 +13°C° 0 mm 3 m/s 744 mmHg 79%
    21:00 +13°C° 0 mm 3 m/s 745 mmHg 80%
    22:00 +13°C° 0 mm 3 m/s 745 mmHg 81%
    23:00 +13°C° 0 mm 3 m/s 745 mmHg 81%

    Demain, 19 Octobre, Samedi

    Heure Température Précipitation Vent Pression Humidité
    00:00 +12°C° 0 mm 3 m/s 745 mmHg 80%
    01:00 +12°C° 0 mm 3 m/s 745 mmHg 80%
    02:00 +13°C° 0 mm 2 m/s 745 mmHg 80%
    03:00 +13°C° 0 mm 2 m/s 745 mmHg 80%
    04:00 +13°C° 0 mm 2 m/s 745 mmHg 80%
    05:00 +12°C° 0 mm 2 m/s 745 mmHg 81%
    06:00 +12°C° 0 mm 1 m/s 745 mmHg 82%
    07:00 +12°C° 0 mm 1 m/s 745 mmHg 83%
    08:00 +14°C° 0 mm 1 m/s 745 mmHg 77%
    09:00 +15°C° 0 mm 1 m/s 745 mmHg 72%
    10:00 +16°C° 0 mm 2 m/s 745 mmHg 66%
    11:00 +17°C° 0 mm 2 m/s 745 mmHg 63%
    12:00 +18°C° 0 mm 2 m/s 745 mmHg 60%
    13:00 +19°C° 0 mm 2 m/s 745 mmHg 56%
    14:00 +19°C° 0 mm 2 m/s 744 mmHg 59%
    15:00 +18°C° 0 mm 2 m/s 744 mmHg 62%
    16:00 +19°C° 0 mm 1 m/s 744 mmHg 65%
    17:00 +17°C° 0 mm 2 m/s 744 mmHg 67%
    18:00 +17°C° 0 mm 2 m/s 744 mmHg 69%
    19:00 +16°C° 0 mm 2 m/s 744 mmHg 71%
    20:00 +16°C° 0 mm 2 m/s 744 mmHg 73%
    21:00 +15°C° 0 mm 2 m/s 744 mmHg 75%
    22:00 +15°C° 0 mm 2 m/s 744 mmHg 77%
    23:00 +15°C° 0 mm 2 m/s 744 mmHg 79%

    Après-demain, 20 Octobre, Dimanche

    Heure Température Précipitation Vent Pression Humidité
    00:00 +14°C° 0 mm 2 m/s 744 mmHg 81%
    01:00 +14°C° 0 mm 2 m/s 745 mmHg 83%
    02:00 +13°C° 0 mm 2 m/s 745 mmHg 85%
    03:00 +13°C° 0 mm 2 m/s 745 mmHg 87%
    04:00 +13°C° 0 mm 2 m/s 745 mmHg 89%
    05:00 +13°C° 0 mm 2 m/s 745 mmHg 89%
    06:00 +12°C° 0 mm 2 m/s 745 mmHg 89%
    07:00 +12°C° 0 mm 2 m/s 745 mmHg 90%
    08:00 +14°C° 0 mm 2 m/s 745 mmHg 82%
    09:00 +16°C° 0 mm 2 m/s 746 mmHg 74%
    10:00 +18°C° 0 mm 2 m/s 746 mmHg 66%
    11:00 +19°C° 0 mm 2 m/s 746 mmHg 62%
    12:00 +20°C° 0 mm 3 m/s 746 mmHg 59%
    13:00 +21°C° 0 mm 3 m/s 746 mmHg 55%
    14:00 +20°C° 0 mm 3 m/s 745 mmHg 58%
    15:00 +20°C° 0 mm 2 m/s 745 mmHg 61%
    16:00 +19°C° 0 mm 2 m/s 745 mmHg 63%
    17:00 +18°C° 0 mm 2 m/s 745 mmHg 66%
    18:00 +17°C° 0 mm 2 m/s 745 mmHg 69%
    19:00 +17°C° 0 mm 2 m/s 745 mmHg 72%
    20:00 +16°C° 0 mm 3 m/s 745 mmHg 72%
    21:00 +16°C° 0 mm 3 m/s 745 mmHg 73%
    22:00 +15°C° 0 mm 4 m/s 745 mmHg 73%
    23:00 +15°C° 0 mm 4 m/s 745 mmHg 73%

    21 Octobre, Lundi

    Heure Température Précipitation Vent Pression Humidité
    00:00 +15°C° 0 mm 4 m/s 744 mmHg 74%
    01:00 +15°C° 0 mm 4 m/s 744 mmHg 74%
    02:00 +14°C° 0 mm 4 m/s 744 mmHg 75%
    03:00 +14°C° 0 mm 4 m/s 744 mmHg 77%
    04:00 +14°C° 0 mm 3 m/s 744 mmHg 78%
    05:00 +13°C° 0 mm 3 m/s 744 mmHg 80%
    06:00 +13°C° 0 mm 3 m/s 744 mmHg 81%
    07:00 +13°C° 0 mm 3 m/s 745 mmHg 83%
    08:00 +14°C° 0 mm 3 m/s 745 mmHg 78%
    09:00 +16°C° 0 mm 3 m/s 745 mmHg 74%
    10:00 +18°C° 0 mm 3 m/s 746 mmHg 69%
    11:00 +19°C° 0 mm 3 m/s 746 mmHg 66%
    12:00 +20°C° 0 mm 3 m/s 746 mmHg 63%
    13:00 +21°C° 0 mm 3 m/s 746 mmHg 59%
    14:00 +20°C° 0 mm 3 m/s 747 mmHg 62%
    15:00 +19°C° 0 mm 3 m/s 747 mmHg 65%
    16:00 +19°C° 0 mm 2 m/s 747 mmHg 68%
    17:00 +18°C° 0 mm 2 m/s 747 mmHg 72%
    18:00 +17°C° 0 mm 2 m/s 748 mmHg 75%
    19:00 +16°C° 0 mm 2 m/s 748 mmHg 79%
    20:00 +15°C° 0 mm 2 m/s 748 mmHg 79%
    21:00 +15°C° 0 mm 2 m/s 749 mmHg 79%
    22:00 +15°C° 0 mm 2 m/s 749 mmHg 79%
    23:00 +14°C° 0 mm 2 m/s 749 mmHg 78%

    22 Octobre, Mardi

    Heure Température Précipitation Vent Pression Humidité
    00:00 +13°C° 0 mm 3 m/s 750 mmHg 76%
    01:00 +12°C° 0 mm 3 m/s 750 mmHg 75%
    02:00 +12°C° 0 mm 3 m/s 750 mmHg 76%
    03:00 +12°C° 0 mm 3 m/s 751 mmHg 76%
    04:00 +11°C° 0 mm 3 m/s 751 mmHg 77%
    05:00 +11°C° 0 mm 3 m/s 751 mmHg 79%
    06:00 +10°C° 0 mm 2 m/s 752 mmHg 80%
    07:00 +10°C° 0 mm 2 m/s 752 mmHg 82%
    08:00 +11°C° 0 mm 3 m/s 753 mmHg 76%
    09:00 +13°C° 0 mm 3 m/s 753 mmHg 71%
    10:00 +14°C° 0 mm 3 m/s 753 mmHg 65%
    11:00 +16°C° 0 mm 3 m/s 753 mmHg 62%
    12:00 +17°C° 0 mm 3 m/s 753 mmHg 59%
    13:00 +17°C° 0 mm 3 m/s 753 mmHg 55%
    14:00 +17°C° 0 mm 3 m/s 753 mmHg 58%
    15:00 +16°C° 0 mm 2 m/s 753 mmHg 61%
    16:00 +16°C° 0 mm 2 m/s 753 mmHg 64%
    17:00 +15°C° 0 mm 1 m/s 753 mmHg 68%
    18:00 +14°C° 0 mm 1 m/s 753 mmHg 71%
    19:00 +13°C° 0 mm 1 m/s 753 mmHg 75%
    20:00 +13°C° 0 mm 1 m/s 754 mmHg 77%
    21:00 +12°C° 0 mm 1 m/s 754 mmHg 79%
    22:00 +12°C° 0 mm 1 m/s 754 mmHg 81%
    23:00 +12°C° 0 mm 1 m/s 754 mmHg 83%

    23 Octobre, Mercredi

    Heure Température Précipitation Vent Pression Humidité
    00:00 +11°C° 0 mm 1 m/s 754 mmHg 84%
    01:00 +11°C° 0 mm 1 m/s 754 mmHg 86%
    02:00 +11°C° 0 mm 1 m/s 754 mmHg 87%
    03:00 +9°C° 0 mm 2 m/s 754 mmHg 88%
    04:00 +9°C° 0 mm 2 m/s 753 mmHg 89%
    05:00 +9°C° 0 mm 2 m/s 753 mmHg 90%
    06:00 +9°C° 0 mm 2 m/s 753 mmHg 90%
    07:00 +9°C° 0 mm 3 m/s 753 mmHg 90%
    08:00 +11°C° 0 mm 3 m/s 753 mmHg 83%
    09:00 +12°C° 0 mm 3 m/s 753 mmHg 76%
    10:00 +14°C° 0 mm 3 m/s 752 mmHg 69%
    11:00 +15°C° 0 mm 4 m/s 752 mmHg 65%
    12:00 +17°C° 0 mm 4 m/s 752 mmHg 61%
    13:00 +18°C° 0 mm 4 m/s 751 mmHg 57%
    14:00 +17°C° 0 mm 4 m/s 751 mmHg 59%
    15:00 +17°C° 0 mm 4 m/s 751 mmHg 61%
    16:00 +15°C° 0 mm 4 m/s 750 mmHg 63%
    17:00 +14°C° 0 mm 4 m/s 750 mmHg 66%
    18:00 +14°C° 0 mm 4 m/s 750 mmHg 69%
    19:00 +13°C° 0 mm 4 m/s 750 mmHg 72%
    20:00 +12°C° 0 mm 4 m/s 750 mmHg 74%
    21:00 +12°C° 0 mm 4 m/s 749 mmHg 75%
    22:00 +12°C° 0 mm 4 m/s 749 mmHg 77%
    23:00 +11°C° 0 mm 4 m/s 749 mmHg 78%
    Voir plus